Location: Newark
(48.2308°N, 120.8549°W)
Time: 23:10:38
(UTC+00:00)

Transit 2A Rocket - Pass Details

Date: 27 May 2020
Orbit: 584 x 919 km, 66.7° (Epoch: 10 July)

Event Time Altitude Azimuth Distance (km) Brightness Sun altitude
Rises 16:57:28 0° 317° (NW) 3,508 8.0 44.8°
Reaches altitude 10° 17:00:15 10° 307° (NW) 2,592 7.4 45.3°
Maximum altitude 17:05:20 29° 250° (WSW) 1,632 6.7 46.1°
Drops below altitude 10° 17:10:26 10° 193° (SSW) 2,600 8.0 46.8°
Sets 17:13:15 0° 183° (S) 3,520 8.6 47.3°
